Location: Wiesbaden
(50.0830°N, 8.2500°E)
Time: 19:53:21
(UTC+02:00)

ISS - Pass Details

Date: 16 July 2019
Orbit: 409 x 418 km, 51.6° (Epoch: 20 July)

Event Time Altitude Azimuth Distance (km) Brightness Sun altitude
Exits shadow 01:30:46 - 262° (W) 1,905 -0.5 -18.5°
Reaches altitude 10° 01:31:47 10° 263° (W) 1,485 -1.0 -18.5°
Maximum altitude 01:35:07 74° 349° (NNW) 433 -3.7 -18.5°
Drops below altitude 10° 01:38:26 10° 76° (ENE) 1,482 -0.8 -18.5°
Sets 01:40:32 0° 78° (ENE) 2,344 0.2 -18.5°
